Time,TemperatureF,DewpointF,PressureIn,WindDirection,WindDirectionDegrees,WindSpeedMPH,WindSpeedGustMPH,Humidity,HourlyPrecipIn,Conditions,Clouds,dailyrainin,SoftwareType,DateUTC
2013-04-14 00:00:00,46.9,39.1,29.91,South,187,0.0,0.0,74,0.00,,---,0.00,VWS V14.00,2013-04-14 04:00:00,
2013-04-14 00:02:00,46.7,38.9,29.91,South,187,0.0,0.0,74,0.00,,---,0.00,VWS V14.00,2013-04-14 04:02:00,
2013-04-14 00:03:00,46.7,38.9,29.91,South,187,0.0,0.0,74,0.00,,---,0.00,VWS V14.00,2013-04-14 04:03:00,
2013-04-14 00:08:00,46.4,38.9,29.90,South,187,0.0,0.0,75,0.00,,---,0.00,VWS V14.00,2013-04-14 04:08:00,
2013-04-14 00:13:00,46.2,38.4,29.90,South,187,0.0,0.0,74,0.00,,---,0.00,VWS V14.00,2013-04-14 04:13:00,
2013-04-14 00:18:00,46.0,38.9,29.90,South,187,0.0,0.0,76,0.00,,---,0.00,VWS V14.00,2013-04-14 04:18:00,
2013-04-14 00:23:00,45.9,38.8,29.90,South,187,0.0,0.0,76,0.00,,---,0.00,VWS V14.00,2013-04-14 04:23:00,
2013-04-14 00:28:00,45.8,39.0,29.91,South,187,0.0,0.0,77,0.00,,---,0.00,VWS V14.00,2013-04-14 04:28:00,
2013-04-14 00:30:00,45.6,38.5,29.91,South,187,0.0,0.0,76,0.00,,---,0.00,VWS V14.00,2013-04-14 04:30:00,
2013-04-14 00:33:00,45.7,38.6,29.91,South,187,0.0,0.0,76,0.00,,---,0.00,VWS V14.00,2013-04-14 04:33:00,
2013-04-14 00:39:00,45.5,38.4,29.91,South,187,0.0,0.0,76,0.00,,---,0.00,VWS V14.00,2013-04-14 04:39:00,
2013-04-14 00:44:00,45.3,38.5,29.91,South,187,0.0,0.0,77,0.00,,---,0.00,VWS V14.00,2013-04-14 04:44:00,
2013-04-14 00:49:00,45.1,38.7,29.91,South,187,0.0,0.0,78,0.00,,---,0.00,VWS V14.00,2013-04-14 04:49:00,
2013-04-14 00:54:00,45.0,38.6,29.91,South,187,0.0,0.0,78,0.00,,---,0.00,VWS V14.00,2013-04-14 04:54:00,
2013-04-14 00:59:00,45.0,38.9,29.91,South,187,0.0,0.0,79,0.00,,---,0.00,VWS V14.00,2013-04-14 04:59:00,
2013-04-14 01:00:00,45.0,38.9,29.91,South,187,0.0,0.0,79,0.00,,---,0.00,VWS V14.00,2013-04-14 05:00:00,
2013-04-14 01:04:00,45.0,38.9,29.91,South,187,0.0,0.0,79,0.00,,---,0.00,VWS V14.00,2013-04-14 05:04:00,
2013-04-14 01:10:00,44.9,38.8,29.91,South,187,0.0,0.0,79,0.00,,---,0.00,VWS V14.00,2013-04-14 05:10:00,
2013-04-14 01:15:00,44.5,38.4,29.91,South,187,0.0,0.0,79,0.00,,---,0.00,VWS V14.00,2013-04-14 05:15:00,
2013-04-14 01:20:00,44.3,38.5,29.91,South,187,0.0,0.0,80,0.00,,---,0.00,VWS V14.00,2013-04-14 05:20:00,
2013-04-14 01:25:00,44.2,38.4,29.91,South,187,0.0,0.0,80,0.00,,---,0.00,VWS V14.00,2013-04-14 05:25:00,
2013-04-14 01:30:00,44.0,38.2,29.91,South,187,0.0,0.0,80,0.00,,---,0.00,VWS V14.00,2013-04-14 05:30:00,
2013-04-14 01:35:00,43.8,38.0,29.91,South,187,2.0,3.0,80,0.00,,---,0.00,VWS V14.00,2013-04-14 05:35:00,
2013-04-14 01:40:00,43.7,38.0,29.91,South,187,0.0,2.0,80,0.00,,---,0.00,VWS V14.00,2013-04-14 05:40:00,
2013-04-14 01:45:00,43.7,38.0,29.91,South,187,1.0,3.0,80,0.00,,---,0.00,VWS V14.00,2013-04-14 05:45:00,
2013-04-14 01:51:00,43.7,38.0,29.91,South,187,0.0,3.0,80,0.00,,---,0.00,VWS V14.00,2013-04-14 05:51:00,
2013-04-14 01:56:00,43.7,38.0,29.91,South,187,0.0,3.0,80,0.00,,---,0.00,VWS V14.00,2013-04-14 05:56:00,
2013-04-14 02:00:00,43.9,38.1,29.91,South,187,2.0,3.0,80,0.00,,---,0.00,VWS V14.00,2013-04-14 06:00:00,
2013-04-14 02:01:00,43.8,37.7,29.91,South,187,0.0,3.0,79,0.00,,---,0.00,VWS V14.00,2013-04-14 06:01:00,
2013-04-14 02:07:00,43.9,38.1,29.91,South,187,0.0,2.0,80,0.00,,---,0.00,VWS V14.00,2013-04-14 06:07:00,
2013-04-14 02:12:00,44.0,37.9,29.90,South,187,0.0,3.0,79,0.00,,---,0.00,VWS V14.00,2013-04-14 06:12:00,
2013-04-14 02:17:00,43.9,37.8,29.90,NW,306,2.0,4.0,79,0.00,,---,0.00,VWS V14.00,2013-04-14 06:17:00,
2013-04-14 02:22:00,43.8,38.0,29.90,NW,306,0.0,4.0,80,0.00,,---,0.00,VWS V14.00,2013-04-14 06:22:00,
2013-04-14 02:27:00,44.0,38.2,29.90,NW,306,0.0,4.0,80,0.00,,---,0.00,VWS V14.00,2013-04-14 06:27:00,
2013-04-14 02:30:00,44.0,38.2,29.90,NW,306,0.0,4.0,80,0.00,,---,0.00,VWS V14.00,2013-04-14 06:30:00,
2013-04-14 02:32:00,44.0,38.2,29.90,NW,306,0.0,4.0,80,0.00,,---,0.00,VWS V14.00,2013-04-14 06:32:00,
2013-04-14 02:37:00,44.0,38.2,29.90,NW,306,0.0,0.0,80,0.00,,---,0.00,VWS V14.00,2013-04-14 06:37:00,
2013-04-14 02:42:00,43.9,38.1,29.90,NW,306,0.0,0.0,80,0.00,,---,0.00,VWS V14.00,2013-04-14 06:42:00,
2013-04-14 02:47:00,43.8,38.0,29.90,NW,306,0.0,0.0,80,0.00,,---,0.00,VWS V14.00,2013-04-14 06:47:00,
2013-04-14 02:53:00,43.8,38.4,29.90,NW,306,0.0,0.0,81,0.00,,---,0.00,VWS V14.00,2013-04-14 06:53:00,
2013-04-14 02:58:00,43.6,38.2,29.90,NW,306,0.0,0.0,81,0.00,,---,0.00,VWS V14.00,2013-04-14 06:58:00,
2013-04-14 03:00:00,43.3,37.9,29.90,NW,306,1.0,3.0,81,0.00,,---,0.00,VWS V14.00,2013-04-14 07:00:00,
2013-04-14 03:03:00,43.4,38.0,29.90,NW,306,1.0,3.0,81,0.00,,---,0.00,VWS V14.00,2013-04-14 07:03:00,
2013-04-14 03:08:00,43.3,37.9,29.90,NW,306,0.0,1.0,81,0.00,,---,0.00,VWS V14.00,2013-04-14 07:08:00,
2013-04-14 03:14:00,43.1,37.7,29.90,NW,306,0.0,3.0,81,0.00,,---,0.00,VWS V14.00,2013-04-14 07:14:00,
2013-04-14 03:19:00,43.0,37.6,29.90,NW,306,0.0,3.0,81,0.00,,---,0.00,VWS V14.00,2013-04-14 07:19:00,
2013-04-14 03:24:00,42.9,37.8,29.90,NW,306,2.0,3.0,82,0.00,,---,0.00,VWS V14.00,2013-04-14 07:24:00,
2013-04-14 03:29:00,42.9,37.5,29.91,NW,306,1.0,4.0,81,0.00,,---,0.00,VWS V14.00,2013-04-14 07:29:00,
2013-04-14 03:30:00,43.2,37.5,29.91,NW,309,3.0,4.0,80,0.00,,---,0.00,VWS V14.00,2013-04-14 07:30:00,
2013-04-14 03:34:00,43.1,37.4,29.90,NW,309,2.0,4.0,80,0.00,,---,0.00,VWS V14.00,2013-04-14 07:34:00,
2013-04-14 03:40:00,43.4,37.7,29.91,NW,309,1.0,3.0,80,0.00,,---,0.00,VWS V14.00,2013-04-14 07:40:00,
2013-04-14 03:45:00,43.6,37.5,29.91,NW,309,0.0,3.0,79,0.00,,---,0.00,VWS V14.00,2013-04-14 07:45:00,
2013-04-14 03:50:00,43.7,37.6,29.90,NW,309,0.0,3.0,79,0.00,,---,0.00,VWS V14.00,2013-04-14 07:50:00,
2013-04-14 03:55:00,43.9,37.8,29.90,NW,309,0.0,3.0,79,0.00,,---,0.00,VWS V14.00,2013-04-14 07:55:00,
2013-04-14 04:00:00,44.0,37.9,29.91,NW,309,0.0,3.0,79,0.00,,---,0.00,VWS V14.00,2013-04-14 08:00:00,
2013-04-14 04:05:00,44.2,38.1,29.91,NW,309,0.0,3.0,79,0.00,,---,0.00,VWS V14.00,2013-04-14 08:05:00,
2013-04-14 04:10:00,44.3,38.2,29.91,NW,309,0.0,1.0,79,0.00,,---,0.00,VWS V14.00,2013-04-14 08:10:00,
2013-04-14 04:16:00,44.3,38.5,29.91,NW,309,0.0,1.0,80,0.00,,---,0.00,VWS V14.00,2013-04-14 08:16:00,
2013-04-14 04:21:00,44.4,38.3,29.91,NW,309,0.0,1.0,79,0.00,,---,0.00,VWS V14.00,2013-04-14 08:21:00,
2013-04-14 04:26:00,44.3,38.2,29.92,NW,309,2.0,2.0,79,0.00,,---,0.00,VWS V14.00,2013-04-14 08:26:00,
2013-04-14 04:30:00,44.3,38.5,29.92,NW,309,0.0,3.0,80,0.00,,---,0.00,VWS V14.00,2013-04-14 08:30:00,
2013-04-14 04:31:00,44.3,38.5,29.92,NW,309,2.0,3.0,80,0.00,,---,0.00,VWS V14.00,2013-04-14 08:31:00,
2013-04-14 04:37:00,44.3,38.8,29.92,NW,309,0.0,0.0,81,0.00,,---,0.00,VWS V14.00,2013-04-14 08:37:00,
2013-04-14 04:42:00,44.3,38.8,29.92,NW,309,0.0,0.0,81,0.00,,---,0.00,VWS V14.00,2013-04-14 08:42:00,
2013-04-14 04:47:00,44.4,38.9,29.92,NW,309,2.0,3.0,81,0.00,,---,0.00,VWS V14.00,2013-04-14 08:47:00,
2013-04-14 04:52:00,44.3,38.8,29.92,NW,309,0.0,3.0,81,0.00,,---,0.00,VWS V14.00,2013-04-14 08:52:00,
2013-04-14 04:57:00,44.3,38.8,29.91,NW,309,0.0,3.0,81,0.00,,---,0.00,VWS V14.00,2013-04-14 08:57:00,
2013-04-14 05:00:00,44.3,38.5,29.91,NW,309,2.0,3.0,80,0.00,,---,0.00,VWS V14.00,2013-04-14 09:00:00,
2013-04-14 05:02:00,44.3,38.5,29.91,NW,309,0.0,3.0,80,0.00,,---,0.00,VWS V14.00,2013-04-14 09:02:00,
2013-04-14 05:07:00,44.4,38.6,29.91,NW,309,0.0,2.0,80,0.00,,---,0.00,VWS V14.00,2013-04-14 09:07:00,
2013-04-14 05:13:00,44.5,39.0,29.91,NW,309,3.0,4.0,81,0.00,,---,0.00,VWS V14.00,2013-04-14 09:13:00,
2013-04-14 05:18:00,44.6,39.1,29.90,NNW,327,2.0,4.0,81,0.00,,---,0.00,VWS V14.00,2013-04-14 09:18:00,
2013-04-14 05:23:00,44.9,39.1,29.90,NNW,340,1.0,4.0,80,0.00,,---,0.00,VWS V14.00,2013-04-14 09:23:00,
2013-04-14 05:28:00,44.9,39.1,29.90,NNW,341,0.0,4.0,80,0.00,,---,0.00,VWS V14.00,2013-04-14 09:28:00,
2013-04-14 05:30:00,44.9,39.1,29.90,NNW,341,3.0,4.0,80,0.00,,---,0.00,VWS V14.00,2013-04-14 09:30:00,
2013-04-14 05:33:00,44.9,39.1,29.90,NNW,341,3.0,4.0,80,0.00,,---,0.00,VWS V14.00,2013-04-14 09:33:00,
2013-04-14 05:39:00,44.8,38.7,29.90,North,350,1.0,4.0,79,0.00,,---,0.00,VWS V14.00,2013-04-14 09:39:00,
2013-04-14 05:44:00,45.0,38.9,29.89,North,350,0.0,4.0,79,0.00,,---,0.00,VWS V14.00,2013-04-14 09:44:00,
2013-04-14 05:49:00,44.9,38.5,29.89,NNE,22,1.0,5.0,78,0.00,,---,0.00,VWS V14.00,2013-04-14 09:49:00,
2013-04-14 05:54:00,44.7,38.3,29.88,NNE,22,3.0,5.0,78,0.00,,---,0.00,VWS V14.00,2013-04-14 09:54:00,
2013-04-14 05:59:00,44.9,38.5,29.88,North,9,0.0,6.0,78,0.00,,---,0.00,VWS V14.00,2013-04-14 09:59:00,
2013-04-14 06:00:00,45.0,38.6,29.88,NNE,21,2.0,6.0,78,0.00,,---,0.00,VWS V14.00,2013-04-14 10:00:00,
2013-04-14 06:04:00,44.9,38.5,29.88,North,9,2.0,6.0,78,0.00,,---,0.00,VWS V14.00,2013-04-14 10:04:00,
2013-04-14 06:10:00,45.1,38.7,29.87,NNE,31,5.0,6.0,78,0.00,,---,0.00,VWS V14.00,2013-04-14 10:10:00,
2013-04-14 06:15:00,45.7,38.6,29.87,NNE,27,10.0,12.0,76,0.00,,---,0.00,VWS V14.00,2013-04-14 10:15:00,
2013-04-14 06:20:00,45.9,38.1,29.86,NE,39,11.0,12.0,74,0.00,,---,0.00,VWS V14.00,2013-04-14 10:20:00,
2013-04-14 06:25:00,46.0,37.8,29.86,NE,36,9.0,12.0,73,0.00,,---,0.00,VWS V14.00,2013-04-14 10:25:00,
2013-04-14 06:30:00,46.1,38.3,29.86,NNE,27,7.0,12.0,74,0.00,,---,0.00,VWS V14.00,2013-04-14 10:30:00,
2013-04-14 06:35:00,46.1,38.3,29.86,NE,34,6.0,12.0,74,0.00,,---,0.00,VWS V14.00,2013-04-14 10:35:00,
2013-04-14 06:40:00,46.3,38.5,29.86,NNE,32,7.0,8.0,74,0.00,,---,0.00,VWS V14.00,2013-04-14 10:40:00,
2013-04-14 06:45:00,46.3,38.5,29.87,NNE,22,6.0,8.0,74,0.00,,---,0.00,VWS V14.00,2013-04-14 10:45:00,
2013-04-14 06:51:00,46.2,38.0,29.87,NE,44,4.0,8.0,73,0.00,,---,0.00,VWS V14.00,2013-04-14 10:51:00,
2013-04-14 06:56:00,46.3,38.5,29.87,NNE,26,6.0,8.0,74,0.00,,---,0.00,VWS V14.00,2013-04-14 10:56:00,
2013-04-14 07:00:00,46.1,37.9,29.86,NE,42,5.0,8.0,73,0.00,,---,0.00,VWS V14.00,2013-04-14 11:00:00,
2013-04-14 07:01:00,46.2,38.7,29.86,NNE,33,6.0,8.0,75,0.00,,---,0.00,VWS V14.00,2013-04-14 11:01:00,
2013-04-14 07:07:00,46.2,38.4,29.86,West,262,5.0,6.0,74,0.00,,---,0.00,VWS V14.00,2013-04-14 11:07:00,
2013-04-14 07:12:00,46.0,38.2,29.87,NNE,17,3.0,7.0,74,0.00,,---,0.00,VWS V14.00,2013-04-14 11:12:00,
2013-04-14 07:17:00,45.9,38.1,29.87,NE,42,6.0,9.0,74,0.00,,---,0.00,VWS V14.00,2013-04-14 11:17:00,
2013-04-14 07:22:00,46.0,38.2,29.88,NE,51,5.0,9.0,74,0.00,,---,0.00,VWS V14.00,2013-04-14 11:22:00,
2013-04-14 07:27:00,46.2,38.4,29.88,NE,42,5.0,9.0,74,0.00,,---,0.00,VWS V14.00,2013-04-14 11:27:00,
2013-04-14 07:30:00,46.4,38.9,29.89,NNE,22,3.0,9.0,75,0.00,,---,0.00,VWS V14.00,2013-04-14 11:30:00,
2013-04-14 07:32:00,46.3,38.8,29.89,NNE,22,1.0,9.0,75,0.00,,---,0.00,VWS V14.00,2013-04-14 11:32:00,
2013-04-14 07:37:00,46.4,38.6,29.89,NE,35,3.0,4.0,74,0.00,,---,0.00,VWS V14.00,2013-04-14 11:37:00,
2013-04-14 07:43:00,46.7,38.2,29.88,NE,56,3.0,5.0,72,0.00,,---,0.00,VWS V14.00,2013-04-14 11:43:00,
2013-04-14 07:48:00,47.0,38.5,29.88,NE,55,2.0,5.0,72,0.00,,---,0.00,VWS V14.00,2013-04-14 11:48:00,
2013-04-14 07:53:00,47.4,38.1,29.88,NE,55,3.0,5.0,70,0.00,,---,0.00,VWS V14.00,2013-04-14 11:53:00,
2013-04-14 07:58:00,47.7,38.0,29.88,NE,55,5.0,5.0,69,0.00,,---,0.00,VWS V14.00,2013-04-14 11:58:00,
2013-04-14 08:00:00,47.9,39.3,29.88,NNE,15,7.0,7.0,72,0.00,,---,0.00,VWS V14.00,2013-04-14 12:00:00,
2013-04-14 08:03:00,47.9,38.6,29.88,NNE,29,4.0,7.0,70,0.00,,---,0.00,VWS V14.00,2013-04-14 12:03:00,
2013-04-14 08:08:00,47.8,39.6,29.88,NNE,30,7.0,9.0,73,0.00,,---,0.00,VWS V14.00,2013-04-14 12:08:00,
2013-04-14 08:14:00,47.6,39.0,29.88,NE,38,6.0,9.0,72,0.00,,---,0.00,VWS V14.00,2013-04-14 12:14:00,
2013-04-14 08:19:00,47.8,38.9,29.88,NE,46,5.0,9.0,71,0.00,,---,0.00,VWS V14.00,2013-04-14 12:19:00,
2013-04-14 08:24:00,48.1,39.2,29.88,NE,35,5.0,9.0,71,0.00,,---,0.00,VWS V14.00,2013-04-14 12:24:00,
2013-04-14 08:29:00,48.3,39.0,29.88,NNE,26,5.0,9.0,70,0.00,,---,0.00,VWS V14.00,2013-04-14 12:29:00,
2013-04-14 08:30:00,48.5,39.2,29.87,NNE,24,6.0,9.0,70,0.00,,---,0.00,VWS V14.00,2013-04-14 12:30:00,
2013-04-14 08:34:00,48.4,38.7,29.88,NNE,24,5.0,9.0,69,0.00,,---,0.00,VWS V14.00,2013-04-14 12:34:00,
2013-04-14 08:40:00,48.6,39.3,29.87,North,360,4.0,6.0,70,0.00,,---,0.00,VWS V14.00,2013-04-14 12:40:00,
2013-04-14 08:45:00,48.6,39.3,29.87,North,355,3.0,6.0,70,0.00,,---,0.00,VWS V14.00,2013-04-14 12:45:00,
2013-04-14 08:50:00,48.7,39.0,29.87,North,360,2.0,6.0,69,0.00,,---,0.00,VWS V14.00,2013-04-14 12:50:00,
2013-04-14 08:55:00,48.9,39.2,29.87,North,360,3.0,6.0,69,0.00,,---,0.00,VWS V14.00,2013-04-14 12:55:00,
2013-04-14 09:00:00,49.1,39.4,29.87,NNE,15,4.0,6.0,69,0.00,,---,0.00,VWS V14.00,2013-04-14 13:00:00,
2013-04-14 09:05:00,49.6,39.5,29.86,NNE,26,5.0,6.0,68,0.00,,---,0.00,VWS V14.00,2013-04-14 13:05:00,
2013-04-14 09:10:00,50.1,40.3,29.86,NNE,22,5.0,6.0,69,0.00,,---,0.00,VWS V14.00,2013-04-14 13:10:00,
2013-04-14 09:15:00,50.8,39.9,29.85,NE,36,7.0,10.0,66,0.00,,---,0.00,VWS V14.00,2013-04-14 13:15:00,
2013-04-14 09:21:00,51.1,39.8,29.86,NE,35,9.0,10.0,65,0.00,,---,0.00,VWS V14.00,2013-04-14 13:21:00,
2013-04-14 09:26:00,51.2,40.2,29.86,NE,42,7.0,10.0,66,0.00,,---,0.00,VWS V14.00,2013-04-14 13:26:00,
2013-04-14 09:30:00,51.9,40.9,29.60,NE,34,6.0,10.0,66,0.00,,---,0.00,VWS V14.00,2013-04-14 13:30:00,
2013-04-14 09:32:00,51.5,40.1,29.60,NNE,30,8.0,10.0,65,0.00,,---,0.00,VWS V14.00,2013-04-14 13:32:00,
2013-04-14 09:37:00,52.1,40.3,29.60,NNE,25,7.0,8.0,64,0.00,,---,0.00,VWS V14.00,2013-04-14 13:37:00,
2013-04-14 09:42:00,52.3,40.9,29.60,NE,34,9.0,9.0,65,0.00,,---,0.00,VWS V14.00,2013-04-14 13:42:00,
2013-04-14 09:47:00,52.4,41.4,29.60,NE,37,7.0,9.0,66,0.00,,---,0.00,VWS V14.00,2013-04-14 13:47:00,
2013-04-14 09:52:00,52.6,41.6,29.60,NNE,28,5.0,9.0,66,0.00,,---,0.00,VWS V14.00,2013-04-14 13:52:00,
2013-04-14 09:58:00,52.8,41.4,29.60,NE,36,6.0,9.0,65,0.00,,---,0.00,VWS V14.00,2013-04-14 13:58:00,
2013-04-14 10:00:00,53.2,41.0,29.60,NE,45,4.0,9.0,63,0.00,,---,0.00,VWS V14.00,2013-04-14 14:00:00,
2013-04-14 10:03:00,53.1,41.7,29.60,NE,44,6.0,9.0,65,0.00,,---,0.00,VWS V14.00,2013-04-14 14:03:00,
2013-04-14 10:08:00,53.4,41.5,29.04,NE,37,5.0,5.0,64,0.00,,---,0.00,VWS V14.00,2013-04-14 14:08:00,
2013-04-14 10:13:00,53.7,41.8,29.04,NE,44,5.0,5.0,64,0.00,,---,0.00,VWS V14.00,2013-04-14 14:13:00,
2013-04-14 10:18:00,54.0,42.5,29.04,NE,54,6.0,8.0,65,0.00,,---,0.00,VWS V14.00,2013-04-14 14:18:00,
2013-04-14 10:23:00,54.1,42.2,29.47,NE,53,7.0,9.0,64,0.00,,---,0.00,VWS V14.00,2013-04-14 14:23:00,
2013-04-14 10:29:00,54.5,43.0,29.47,East,80,4.0,9.0,65,0.00,,---,0.00,VWS V14.00,2013-04-14 14:29:00,
2013-04-14 10:30:00,55.2,43.2,29.67,North,10,0.0,9.0,64,0.00,,---,0.00,VWS V14.00,2013-04-14 14:30:00,
2013-04-14 10:34:00,55.0,43.1,29.67,North,10,3.0,9.0,64,0.00,,---,0.00,VWS V14.00,2013-04-14 14:34:00,
2013-04-14 10:39:00,55.5,42.7,29.67,North,10,0.0,1.0,62,0.00,,---,0.00,VWS V14.00,2013-04-14 14:39:00,
2013-04-14 10:44:00,56.4,42.7,29.67,NNE,21,0.0,1.0,60,0.00,,---,0.00,VWS V14.00,2013-04-14 14:44:00,
2013-04-14 10:49:00,57.6,42.5,29.67,ENE,64,2.0,3.0,57,0.00,,---,0.00,VWS V14.00,2013-04-14 14:49:00,
2013-04-14 10:54:00,58.3,41.8,29.67,SE,133,3.0,5.0,54,0.00,,---,0.00,VWS V14.00,2013-04-14 14:54:00,
2013-04-14 11:00:00,58.9,41.3,29.67,SE,146,4.0,9.0,52,0.00,,---,0.00,VWS V14.00,2013-04-14 15:00:00,
2013-04-14 11:05:00,59.0,42.4,29.67,SE,133,5.0,9.0,54,0.00,,---,0.00,VWS V14.00,2013-04-14 15:05:00,
2013-04-14 11:10:00,59.0,42.9,29.67,East,88,3.0,4.0,55,0.00,,---,0.00,VWS V14.00,2013-04-14 15:10:00,
2013-04-14 11:15:00,59.0,42.9,29.67,ENE,59,2.0,4.0,55,0.00,,---,0.00,VWS V14.00,2013-04-14 15:15:00,
2013-04-14 11:20:00,59.0,42.9,29.67,NE,38,1.0,5.0,55,0.00,,---,0.00,VWS V14.00,2013-04-14 15:20:00,
2013-04-14 11:25:00,59.0,41.9,29.67,NNE,28,4.0,5.0,53,0.00,,---,0.00,VWS V14.00,2013-04-14 15:25:00,
2013-04-14 11:30:00,59.1,42.5,29.67,NNE,28,2.0,5.0,54,0.00,,---,0.00,VWS V14.00,2013-04-14 15:30:00,
2013-04-14 11:36:00,59.4,42.8,29.67,NNE,28,1.0,5.0,54,0.00,,---,0.00,VWS V14.00,2013-04-14 15:36:00,
2013-04-14 11:41:00,59.8,42.7,29.67,NNE,28,2.0,4.0,53,0.00,,---,0.00,VWS V14.00,2013-04-14 15:41:00,
2013-04-14 11:46:00,60.3,42.6,29.67,NNE,28,0.0,4.0,52,0.00,,---,0.00,VWS V14.00,2013-04-14 15:46:00,
2013-04-14 11:51:00,60.9,42.2,29.67,NNE,28,0.0,4.0,50,0.00,,---,0.00,VWS V14.00,2013-04-14 15:51:00,
2013-04-14 11:57:00,61.2,43.0,29.67,NNE,28,1.0,4.0,51,0.00,,---,0.00,VWS V14.00,2013-04-14 15:57:00,
2013-04-14 12:00:00,62.1,43.3,29.67,East,84,2.0,4.0,50,0.00,,---,0.00,VWS V14.00,2013-04-14 16:00:00,
2013-04-14 12:02:00,61.5,44.2,29.67,NNE,28,0.0,4.0,53,0.00,,---,0.00,VWS V14.00,2013-04-14 16:02:00,
2013-04-14 12:07:00,62.3,44.0,29.67,East,84,1.0,3.0,51,0.00,,---,0.00,VWS V14.00,2013-04-14 16:07:00,
2013-04-14 12:12:00,62.9,44.0,29.67,East,84,0.0,3.0,50,0.00,,---,0.00,VWS V14.00,2013-04-14 16:12:00,
2013-04-14 12:18:00,63.2,44.3,29.67,SE,136,5.0,5.0,50,0.00,,---,0.00,VWS V14.00,2013-04-14 16:18:00,
2013-04-14 12:23:00,63.9,44.4,29.67,SSE,165,7.0,11.0,49,0.00,,---,0.00,VWS V14.00,2013-04-14 16:23:00,
2013-04-14 12:28:00,64.6,44.5,29.67,SSE,161,6.0,11.0,48,0.00,,---,0.00,VWS V14.00,2013-04-14 16:28:00,
2013-04-14 12:30:00,65.2,44.5,29.67,SSE,162,7.0,11.0,47,0.00,,---,0.00,VWS V14.00,2013-04-14 16:30:00,
2013-04-14 12:33:00,65.1,44.4,29.67,South,183,4.0,11.0,47,0.00,,---,0.00,VWS V14.00,2013-04-14 16:33:00,
2013-04-14 12:38:00,65.2,43.9,29.67,SSE,152,6.0,9.0,46,0.00,,---,0.00,VWS V14.00,2013-04-14 16:38:00,
2013-04-14 12:43:00,65.3,44.6,29.67,SE,146,3.0,9.0,47,0.00,,---,0.00,VWS V14.00,2013-04-14 16:43:00,
2013-04-14 12:48:00,65.1,44.9,29.67,SSE,162,6.0,9.0,48,0.00,,---,0.00,VWS V14.00,2013-04-14 16:48:00,
2013-04-14 12:54:00,65.5,44.8,29.67,SSE,148,5.0,9.0,47,0.00,,---,0.00,VWS V14.00,2013-04-14 16:54:00,
2013-04-14 12:59:00,66.3,45.5,29.67,SSE,161,9.0,10.0,47,0.00,,---,0.00,VWS V14.00,2013-04-14 16:59:00,
2013-04-14 13:00:00,66.5,44.5,29.67,SSE,157,6.0,12.0,45,0.00,,---,0.00,VWS V14.00,2013-04-14 17:00:00,
2013-04-14 13:04:00,66.5,45.7,29.67,SSE,165,3.0,12.0,47,0.00,,---,0.00,VWS V14.00,2013-04-14 17:04:00,
2013-04-14 13:09:00,66.8,44.8,29.67,South,179,14.0,15.0,45,0.00,,---,0.00,VWS V14.00,2013-04-14 17:09:00,
2013-04-14 13:14:00,66.5,45.1,29.67,SSE,157,12.0,16.0,46,0.00,,---,0.00,VWS V14.00,2013-04-14 17:14:00,
2013-04-14 13:20:00,66.9,44.9,29.67,SSE,159,11.0,16.0,45,0.00,,---,0.00,VWS V14.00,2013-04-14 17:20:00,
2013-04-14 13:25:00,67.3,45.2,29.67,South,190,6.0,16.0,45,0.00,,---,0.00,VWS V14.00,2013-04-14 17:25:00,
2013-04-14 13:30:00,67.5,44.8,29.67,SSE,163,0.0,16.0,44,0.00,,---,0.00,VWS V14.00,2013-04-14 17:30:00,
2013-04-14 13:35:00,67.6,44.9,29.67,SSE,156,9.0,16.0,44,0.00,,---,0.00,VWS V14.00,2013-04-14 17:35:00,
2013-04-14 13:41:00,67.4,45.3,29.67,SSE,156,4.0,10.0,45,0.00,,---,0.00,VWS V14.00,2013-04-14 17:41:00,
2013-04-14 13:46:00,66.9,45.5,29.67,South,169,6.0,10.0,46,0.00,,---,0.00,VWS V14.00,2013-04-14 17:46:00,
2013-04-14 13:51:00,67.7,45.0,29.67,SE,140,4.0,10.0,44,0.00,,---,0.00,VWS V14.00,2013-04-14 17:51:00,
2013-04-14 13:57:00,68.3,45.0,29.67,SSE,168,4.0,10.0,43,0.00,,---,0.00,VWS V14.00,2013-04-14 17:57:00,
2013-04-14 14:00:00,67.8,46.3,29.67,SSE,163,6.0,10.0,46,0.00,,---,0.00,VWS V14.00,2013-04-14 18:00:00,
2013-04-14 14:02:00,68.5,45.1,29.67,SE,146,6.0,10.0,43,0.00,,---,0.00,VWS V14.00,2013-04-14 18:02:00,
2013-04-14 14:07:00,67.7,46.8,29.67,SSE,165,6.0,7.0,47,0.00,,---,0.00,VWS V14.00,2013-04-14 18:07:00,
2013-04-14 14:12:00,67.7,45.0,29.67,SSE,153,11.0,12.0,44,0.00,,---,0.00,VWS V14.00,2013-04-14 18:12:00,
2013-04-14 14:17:00,68.6,44.6,29.67,SSE,157,9.0,14.0,42,0.00,,---,0.00,VWS V14.00,2013-04-14 18:17:00,
2013-04-14 14:22:00,68.4,46.2,29.67,SSE,156,6.0,14.0,45,0.00,,---,0.00,VWS V14.00,2013-04-14 18:22:00,
2013-04-14 14:27:00,68.9,46.1,29.67,SSE,167,14.0,14.0,44,0.00,,---,0.00,VWS V14.00,2013-04-14 18:27:00,
2013-04-14 14:30:00,68.9,44.9,29.67,SSE,148,9.0,17.0,42,0.00,,---,0.00,VWS V14.00,2013-04-14 18:30:00,
2013-04-14 14:33:00,68.7,47.1,29.67,SE,129,14.0,17.0,46,0.00,,---,0.00,VWS V14.00,2013-04-14 18:33:00,
2013-04-14 14:38:00,69.0,46.2,29.67,SSE,151,14.0,14.0,44,0.00,,---,0.00,VWS V14.00,2013-04-14 18:38:00,
2013-04-14 14:43:00,69.5,44.2,29.67,SSE,161,14.0,19.0,40,0.00,,---,0.00,VWS V14.00,2013-04-14 18:43:00,
2013-04-14 14:48:00,70.1,45.3,29.67,SSE,163,10.0,19.0,41,0.00,,---,0.00,VWS V14.00,2013-04-14 18:48:00,
2013-04-14 14:53:00,69.4,44.7,29.67,SSE,157,16.0,20.0,41,0.00,,---,0.00,VWS V14.00,2013-04-14 18:53:00,
2013-04-14 14:58:00,70.1,44.0,29.67,South,186,14.0,20.0,39,0.00,,---,0.00,VWS V14.00,2013-04-14 18:58:00,
2013-04-14 15:00:00,69.9,45.2,29.67,SSE,155,14.0,20.0,41,0.00,,---,0.00,VWS V14.00,2013-04-14 19:00:00,
2013-04-14 15:04:00,70.2,44.8,29.67,SSE,157,10.0,20.0,40,0.00,,---,0.00,VWS V14.00,2013-04-14 19:04:00,
2013-04-14 15:09:00,69.4,46.6,29.67,SSE,149,12.0,16.0,44,0.00,,---,0.00,VWS V14.00,2013-04-14 19:09:00,
2013-04-14 15:14:00,69.8,45.1,29.67,SSE,156,12.0,21.0,41,0.00,,---,0.00,VWS V14.00,2013-04-14 19:14:00,
2013-04-14 15:19:00,69.7,45.6,29.67,SE,134,13.0,21.0,42,0.00,,---,0.00,VWS V14.00,2013-04-14 19:19:00,
2013-04-14 15:24:00,69.3,47.1,29.67,SSE,150,14.0,21.0,45,0.00,,---,0.00,VWS V14.00,2013-04-14 19:24:00,
2013-04-14 15:29:00,70.2,44.8,29.67,SSE,150,10.0,21.0,40,0.00,,---,0.00,VWS V14.00,2013-04-14 19:29:00,
2013-04-14 15:30:00,69.5,45.4,29.67,SE,142,16.0,21.0,42,0.00,,---,0.00,VWS V14.00,2013-04-14 19:30:00,
2013-04-14 15:34:00,69.5,46.0,29.67,SE,146,14.0,21.0,43,0.00,,---,0.00,VWS V14.00,2013-04-14 19:34:00,
2013-04-14 15:39:00,70.5,45.0,29.67,SE,134,9.0,17.0,40,0.00,,---,0.00,VWS V14.00,2013-04-14 19:39:00,
2013-04-14 15:44:00,69.3,44.6,29.67,ESE,122,9.0,17.0,41,0.00,,---,0.00,VWS V14.00,2013-04-14 19:44:00,
2013-04-14 15:50:00,70.3,45.5,29.67,SE,140,14.0,17.0,41,0.00,,---,0.00,VWS V14.00,2013-04-14 19:50:00,
2013-04-14 15:55:00,70.2,46.1,29.67,SSE,154,11.0,19.0,42,0.00,,---,0.00,VWS V14.00,2013-04-14 19:55:00,
2013-04-14 16:00:00,70.0,45.2,29.67,SE,141,11.0,19.0,41,0.00,,---,0.00,VWS V14.00,2013-04-14 20:00:00,
2013-04-14 16:05:00,69.8,44.4,29.67,SE,133,14.0,19.0,40,0.00,,---,0.00,VWS V14.00,2013-04-14 20:05:00,
2013-04-14 16:10:00,70.2,44.1,29.67,SE,134,9.0,15.0,39,0.00,,---,0.00,VWS V14.00,2013-04-14 20:10:00,
2013-04-14 16:15:00,70.4,45.0,29.67,SE,136,10.0,15.0,40,0.00,,---,0.00,VWS V14.00,2013-04-14 20:15:00,
2013-04-14 16:21:00,70.3,46.2,29.67,SE,146,7.0,15.0,42,0.00,,---,0.00,VWS V14.00,2013-04-14 20:21:00,
2013-04-14 16:26:00,70.4,45.6,29.67,ESE,123,11.0,17.0,41,0.00,,---,0.00,VWS V14.00,2013-04-14 20:26:00,
2013-04-14 16:30:00,70.3,46.2,29.67,ESE,121,11.0,17.0,42,0.00,,---,0.00,VWS V14.00,2013-04-14 20:30:00,
2013-04-14 16:31:00,70.6,46.4,29.67,ESE,109,16.0,17.0,42,0.00,,---,0.00,VWS V14.00,2013-04-14 20:31:00,
2013-04-14 16:36:00,70.3,46.2,29.67,ESE,121,11.0,17.0,42,0.00,,---,0.00,VWS V14.00,2013-04-14 20:36:00,
2013-04-14 16:41:00,70.2,47.3,29.67,SE,133,7.0,13.0,44,0.00,,---,0.00,VWS V14.00,2013-04-14 20:41:00,
2013-04-14 16:46:00,70.5,45.7,29.67,SE,128,9.0,16.0,41,0.00,,---,0.00,VWS V14.00,2013-04-14 20:46:00,
2013-04-14 16:51:00,70.1,46.6,29.67,SE,129,10.0,16.0,43,0.00,,---,0.00,VWS V14.00,2013-04-14 20:51:00,
2013-04-14 16:57:00,70.3,45.5,28.29,ESE,110,13.0,17.0,41,0.00,,---,0.00,VWS V14.00,2013-04-14 20:57:00,
2013-04-14 17:00:00,70.9,46.7,28.29,SE,134,10.0,17.0,42,0.00,,---,0.00,VWS V14.00,2013-04-14 21:00:00,
2013-04-14 17:02:00,70.5,45.0,28.29,SE,128,11.0,17.0,40,0.00,,---,0.00,VWS V14.00,2013-04-14 21:02:00,
2013-04-14 17:07:00,70.6,46.4,28.29,SE,140,11.0,13.0,42,0.00,,---,0.00,VWS V14.00,2013-04-14 21:07:00,
2013-04-14 17:12:00,70.3,44.9,28.29,ESE,107,12.0,15.0,40,0.00,,---,0.00,VWS V14.00,2013-04-14 21:12:00,
2013-04-14 17:17:00,71.0,44.8,28.29,ESE,106,13.0,15.0,39,0.00,,---,0.00,VWS V14.00,2013-04-14 21:17:00,
2013-04-14 17:22:00,70.7,46.5,28.29,SE,125,13.0,16.0,42,0.00,,---,0.00,VWS V14.00,2013-04-14 21:22:00,
2013-04-14 17:28:00,70.3,45.5,28.29,SE,138,11.0,16.0,41,0.00,,---,0.00,VWS V14.00,2013-04-14 21:28:00,
2013-04-14 17:30:00,70.3,44.9,28.29,SSE,153,17.0,17.0,40,0.00,,---,0.00,VWS V14.00,2013-04-14 21:30:00,
2013-04-14 17:33:00,69.8,46.3,28.29,SE,140,9.0,16.0,43,0.00,,---,0.00,VWS V14.00,2013-04-14 21:33:00,
2013-04-14 17:38:00,71.1,45.6,28.29,SE,133,13.0,17.0,40,0.00,,---,0.00,VWS V14.00,2013-04-14 21:38:00,
2013-04-14 17:43:00,71.3,43.7,28.29,SE,145,18.0,22.0,37,0.00,,---,0.00,VWS V14.00,2013-04-14 21:43:00,
2013-04-14 17:48:00,72.0,45.0,28.29,SE,130,12.0,22.0,38,0.00,,---,0.00,VWS V14.00,2013-04-14 21:48:00,
2013-04-14 17:53:00,71.1,45.6,28.96,SSE,153,16.0,22.0,40,0.00,,---,0.00,VWS V14.00,2013-04-14 21:53:00,
2013-04-14 17:59:00,70.2,46.7,28.96,SE,137,10.0,22.0,43,0.00,,---,0.00,VWS V14.00,2013-04-14 21:59:00,
2013-04-14 18:00:00,70.3,46.2,28.96,ESE,117,9.0,22.0,42,0.00,,---,0.00,VWS V14.00,2013-04-14 22:00:00,
2013-04-14 18:04:00,70.6,46.4,28.96,ESE,123,7.0,22.0,42,0.00,,---,0.00,VWS V14.00,2013-04-14 22:04:00,
2013-04-14 18:09:00,70.7,44.5,28.96,ESE,112,11.0,13.0,39,0.00,,---,0.00,VWS V14.00,2013-04-14 22:09:00,
2013-04-14 18:14:00,71.0,44.8,28.96,SE,130,13.0,13.0,39,0.00,,---,0.00,VWS V14.00,2013-04-14 22:14:00,
2013-04-14 18:19:00,71.3,45.8,28.96,ESE,119,5.0,14.0,40,0.00,,---,0.00,VWS V14.00,2013-04-14 22:19:00,
2013-04-14 18:24:00,70.7,45.9,28.96,SE,128,5.0,14.0,41,0.00,,---,0.00,VWS V14.00,2013-04-14 22:24:00,
2013-04-14 18:30:00,70.9,45.4,28.96,SSE,159,10.0,15.0,40,0.00,,---,0.00,VWS V14.00,2013-04-14 22:30:00,
2013-04-14 18:35:00,70.9,44.7,28.96,ESE,121,11.0,16.0,39,0.00,,---,0.00,VWS V14.00,2013-04-14 22:35:00,
2013-04-14 18:40:00,71.5,44.6,28.96,SE,138,12.0,17.0,38,0.00,,---,0.00,VWS V14.00,2013-04-14 22:40:00,
2013-04-14 18:45:00,71.9,44.9,28.96,SE,136,14.0,17.0,38,0.00,,---,0.00,VWS V14.00,2013-04-14 22:45:00,
2013-04-14 18:50:00,71.9,45.6,28.96,SE,126,12.0,21.0,39,0.00,,---,0.00,VWS V14.00,2013-04-14 22:50:00,
2013-04-14 18:56:00,71.3,45.8,28.96,SE,141,17.0,21.0,40,0.00,,---,0.00,VWS V14.00,2013-04-14 22:56:00,
2013-04-14 19:00:00,72.2,45.9,28.96,ESE,119,14.0,21.0,39,0.00,,---,0.00,VWS V14.00,2013-04-14 23:00:00,
2013-04-14 19:01:00,71.6,45.4,28.96,SE,127,16.0,21.0,39,0.00,,---,0.00,VWS V14.00,2013-04-14 23:01:00,
2013-04-14 19:06:00,72.3,46.0,28.96,SE,129,17.0,18.0,39,0.00,,---,0.00,VWS V14.00,2013-04-14 23:06:00,
2013-04-14 19:11:00,72.3,46.7,28.96,SE,142,12.0,20.0,40,0.00,,---,0.00,VWS V14.00,2013-04-14 23:11:00,
2013-04-14 19:17:00,72.0,46.4,28.96,SE,130,12.0,24.0,40,0.00,,---,0.00,VWS V14.00,2013-04-14 23:17:00,
2013-04-14 19:22:00,71.4,45.2,28.96,SE,129,16.0,24.0,39,0.00,,---,0.00,VWS V14.00,2013-04-14 23:22:00,
2013-04-14 19:27:00,71.7,46.8,28.96,SE,134,15.0,24.0,41,0.00,,---,0.00,VWS V14.00,2013-04-14 23:27:00,
2013-04-14 19:30:00,71.1,48.1,28.96,SE,136,10.0,24.0,44,0.00,,---,0.00,VWS V14.00,2013-04-14 23:30:00,
2013-04-14 19:32:00,70.9,47.3,28.96,SSE,147,15.0,24.0,43,0.00,,---,0.00,VWS V14.00,2013-04-14 23:32:00,
2013-04-14 19:37:00,70.7,48.3,28.96,SE,143,13.0,14.0,45,0.00,,---,0.00,VWS V14.00,2013-04-14 23:37:00,
2013-04-14 19:42:00,70.4,47.5,28.96,SE,145,13.0,15.0,44,0.00,,---,0.00,VWS V14.00,2013-04-14 23:42:00,
2013-04-14 19:47:00,71.1,48.1,28.96,SE,136,11.0,17.0,44,0.00,,---,0.00,VWS V14.00,2013-04-14 23:47:00,
2013-04-14 19:52:00,71.6,46.7,28.96,SE,136,15.0,20.0,41,0.00,,---,0.00,VWS V14.00,2013-04-14 23:52:00,
2013-04-14 19:58:00,70.1,47.8,28.96,SE,141,13.0,20.0,45,0.00,,---,0.00,VWS V14.00,2013-04-14 23:58:00,
2013-04-14 20:00:00,70.4,48.1,28.96,SE,141,15.0,20.0,45,0.00,,---,0.00,VWS V14.00,2013-04-15 00:00:00,
2013-04-14 20:03:00,70.4,47.5,28.96,SE,144,16.0,20.0,44,0.00,,---,0.00,VWS V14.00,2013-04-15 00:03:00,
2013-04-14 20:08:00,70.3,47.4,28.96,SE,138,11.0,15.0,44,0.00,,---,0.00,VWS V14.00,2013-04-15 00:08:00,
2013-04-14 20:13:00,69.6,48.5,28.96,SE,146,13.0,16.0,47,0.00,,---,0.00,VWS V14.00,2013-04-15 00:13:00,
2013-04-14 20:18:00,69.3,47.7,28.96,SE,144,12.0,17.0,46,0.00,,---,0.00,VWS V14.00,2013-04-15 00:18:00,
2013-04-14 20:23:00,69.7,48.0,28.96,SE,146,11.0,17.0,46,0.00,,---,0.00,VWS V14.00,2013-04-15 00:23:00,
2013-04-14 20:28:00,69.3,48.2,28.96,SSE,148,12.0,17.0,47,0.00,,---,0.00,VWS V14.00,2013-04-15 00:28:00,
2013-04-14 20:30:00,69.0,47.4,28.96,SSE,152,15.0,17.0,46,0.00,,---,0.00,VWS V14.00,2013-04-15 00:30:00,
2013-04-14 20:34:00,68.9,48.4,28.96,SSE,161,11.0,17.0,48,0.00,,---,0.00,VWS V14.00,2013-04-15 00:34:00,
2013-04-14 20:39:00,69.4,47.2,28.96,SSE,157,15.0,17.0,45,0.00,,---,0.00,VWS V14.00,2013-04-15 00:39:00,
2013-04-14 20:44:00,69.9,47.6,28.96,SSE,153,16.0,22.0,45,0.00,,---,0.00,VWS V14.00,2013-04-15 00:44:00,
2013-04-14 20:49:00,69.3,47.7,28.96,SSE,156,10.0,22.0,46,0.00,,---,0.00,VWS V14.00,2013-04-15 00:49:00,
2013-04-14 20:54:00,68.9,47.9,28.96,SSE,158,10.0,22.0,47,0.00,,---,0.00,VWS V14.00,2013-04-15 00:54:00,
2013-04-14 20:59:00,68.6,48.2,28.96,SSE,163,9.0,22.0,48,0.00,,---,0.00,VWS V14.00,2013-04-15 00:59:00,
2013-04-14 21:00:00,67.6,47.8,28.96,SSE,165,7.0,22.0,49,0.00,,---,0.00,VWS V14.00,2013-04-15 01:00:00,
2013-04-14 21:05:00,67.6,48.3,28.96,SSE,165,8.0,22.0,50,0.00,,---,0.00,VWS V14.00,2013-04-15 01:05:00,
2013-04-14 21:10:00,67.5,47.7,29.81,SSE,162,7.0,10.0,49,0.00,,---,0.00,VWS V14.00,2013-04-15 01:10:00,
2013-04-14 21:15:00,67.7,47.9,29.81,SSE,162,9.0,11.0,49,0.00,,---,0.00,VWS V14.00,2013-04-15 01:15:00,
2013-04-14 21:20:00,67.6,48.3,29.81,SSE,164,7.0,11.0,50,0.00,,---,0.00,VWS V14.00,2013-04-15 01:20:00,
2013-04-14 21:25:00,67.0,47.8,29.81,SSE,165,7.0,11.0,50,0.00,,---,0.00,VWS V14.00,2013-04-15 01:25:00,
2013-04-14 21:30:00,67.3,47.5,29.81,SSE,168,8.0,12.0,49,0.00,,---,0.00,VWS V14.00,2013-04-15 01:30:00,
2013-04-14 21:31:00,67.2,48.0,29.81,SSE,167,10.0,12.0,50,0.00,,---,0.00,VWS V14.00,2013-04-15 01:31:00,
2013-04-14 21:36:00,67.3,47.5,29.81,South,169,9.0,12.0,49,0.00,,---,0.00,VWS V14.00,2013-04-15 01:36:00,
2013-04-14 21:41:00,67.4,47.6,29.81,South,170,6.0,11.0,49,0.00,,---,0.00,VWS V14.00,2013-04-15 01:41:00,
2013-04-14 21:47:00,67.9,47.5,29.81,South,169,7.0,12.0,48,0.00,,---,0.00,VWS V14.00,2013-04-15 01:47:00,
2013-04-14 21:52:00,67.9,48.1,29.81,South,169,9.0,15.0,49,0.00,,---,0.00,VWS V14.00,2013-04-15 01:52:00,
2013-04-14 21:57:00,67.6,47.2,29.81,South,172,8.0,15.0,48,0.00,,---,0.00,VWS V14.00,2013-04-15 01:57:00,
2013-04-14 22:00:00,67.3,47.0,29.81,SSE,164,9.0,15.0,48,0.00,,---,0.00,VWS V14.00,2013-04-15 02:00:00,
2013-04-14 22:02:00,67.2,47.4,29.81,South,177,5.0,15.0,49,0.00,,---,0.00,VWS V14.00,2013-04-15 02:02:00,
2013-04-14 22:07:00,67.3,47.5,29.81,SSE,168,7.0,10.0,49,0.00,,---,0.00,VWS V14.00,2013-04-15 02:07:00,
2013-04-14 22:12:00,67.7,47.3,29.81,SSE,163,12.0,21.0,48,0.00,,---,0.00,VWS V14.00,2013-04-15 02:12:00,
2013-04-14 22:18:00,66.6,47.4,29.81,SSE,155,19.0,21.0,50,0.00,,---,0.00,VWS V14.00,2013-04-15 02:18:00,
2013-04-14 22:23:00,66.9,47.1,29.81,SE,145,14.0,21.0,49,0.00,,---,0.00,VWS V14.00,2013-04-15 02:23:00,
2013-04-14 22:28:00,66.6,46.9,29.81,SSE,163,14.0,21.0,49,0.00,,---,0.00,VWS V14.00,2013-04-15 02:28:00,
2013-04-14 22:30:00,66.4,47.2,29.81,SSE,167,11.0,21.0,50,0.00,,---,0.00,VWS V14.00,2013-04-15 02:30:00,
2013-04-14 22:33:00,66.5,47.3,29.81,SSE,150,19.0,21.0,50,0.00,,---,0.00,VWS V14.00,2013-04-15 02:33:00,
2013-04-14 22:38:00,66.4,46.7,29.81,South,171,12.0,26.0,49,0.00,,---,0.00,VWS V14.00,2013-04-15 02:38:00,
2013-04-14 22:43:00,66.2,47.0,29.81,SSE,165,11.0,26.0,50,0.00,,---,0.00,VWS V14.00,2013-04-15 02:43:00,
2013-04-14 22:49:00,65.5,47.4,29.81,South,169,17.0,26.0,52,0.00,,---,0.00,VWS V14.00,2013-04-15 02:49:00,
2013-04-14 22:54:00,66.1,46.4,29.81,SSE,165,17.0,26.0,49,0.00,,---,0.00,VWS V14.00,2013-04-15 02:54:00,
2013-04-14 22:59:00,66.0,46.8,29.81,South,175,13.0,26.0,50,0.00,,---,0.00,VWS V14.00,2013-04-15 02:59:00,
2013-04-14 23:00:00,65.1,47.1,29.81,SSE,156,13.0,26.0,52,0.00,,---,0.00,VWS V14.00,2013-04-15 03:00:00,
2013-04-14 23:04:00,65.3,47.2,29.81,SSE,161,13.0,26.0,52,0.00,,---,0.00,VWS V14.00,2013-04-15 03:04:00,
2013-04-14 23:09:00,64.9,47.4,29.81,SSE,155,12.0,20.0,53,0.00,,---,0.00,VWS V14.00,2013-04-15 03:09:00,
2013-04-14 23:14:00,64.9,47.4,29.81,SSE,159,11.0,20.0,53,0.00,,---,0.00,VWS V14.00,2013-04-15 03:14:00,
2013-04-14 23:20:00,64.6,47.1,29.81,SSE,156,13.0,20.0,53,0.00,,---,0.00,VWS V14.00,2013-04-15 03:20:00,
2013-04-14 23:25:00,64.6,47.6,29.81,SSE,160,11.0,20.0,54,0.00,,---,0.00,VWS V14.00,2013-04-15 03:25:00,
2013-04-14 23:30:00,64.2,47.2,29.81,SSE,155,13.0,20.0,54,0.00,,---,0.00,VWS V14.00,2013-04-15 03:30:00,
2013-04-14 23:35:00,64.0,47.5,29.81,SSE,161,12.0,20.0,55,0.00,,---,0.00,VWS V14.00,2013-04-15 03:35:00,
2013-04-14 23:40:00,63.9,47.4,29.81,SSE,163,16.0,19.0,55,0.00,,---,0.00,VWS V14.00,2013-04-15 03:40:00,
2013-04-14 23:46:00,63.6,47.6,29.81,SSE,150,18.0,20.0,56,0.00,,---,0.00,VWS V14.00,2013-04-15 03:46:00,
2013-04-14 23:51:00,63.4,47.5,29.81,SSE,156,17.0,20.0,56,0.00,,---,0.00,VWS V14.00,2013-04-15 03:51:00,
2013-04-14 23:56:00,63.5,47.5,29.81,South,183,14.0,20.0,56,0.00,,---,0.00,VWS V14.00,2013-04-15 03:56:00,